| time (UTC) | temp C | wind direction | speed KPH | gust KPH | rain 1hr cm | rain 24hr cm | rain mn cm | humidity % | barometer mb |
| 20260503052201 | 32 | 0.0 | 0.0 | 0.00 | 0.00 | 0.00 | 50 | 1004.7 | |
| 20260503051156 | 32 | 0.0 | 0.0 | 0.00 | 0.00 | 0.00 | 51 | 1004.9 | |
| 20260503050152 | 32 | 0.0 | 0.0 | 0.00 | 0.00 | 0.00 | 51 | 1004.8 | |
| 20260503045147 | 32 | 0.0 | 0.0 | 0.00 | 0.00 | 0.00 | 51 | 1005.0 | |
| 20260503044142 | 32 | 0.0 | 0.0 | 0.00 | 0.00 | 0.00 | 51 | 1005.2 | |
| 20260503043137 | 32 | 0.0 | 0.0 | 0.00 | 0.00 | 0.00 | 50 | 1005.2 | |
| 20260503042133 | 32 | 0.0 | 0.0 | 0.00 | 0.00 | 0.00 | 50 | 1005.1 | |
| 20260503041128 | 32 | 0.0 | 0.0 | 0.00 | 0.00 | 0.00 | 50 | 1005.2 | |
| 20260503040123 | 32 | 0.0 | 0.0 | 0.00 | 0.00 | 0.00 | 51 | 1005.1 | |
| 20260503035118 | 32 | 0.0 | 0.0 | 0.00 | 0.00 | 0.00 | 50 | 1005.3 | |
| 20260503034113 | 32 | 0.0 | 0.0 | 0.00 | 0.00 | 0.00 | 50 | 1005.3 | |
| 20260503033109 | 32 | 0.0 | 0.0 | 0.00 | 0.00 | 0.00 | 49 | 1005.4 | |
| 20260503032104 | 32 | 0.0 | 0.0 | 0.00 | 0.00 | 0.00 | 49 | 1005.2 | |
| 20260503031059 | 33 | 0.0 | 0.0 | 0.00 | 0.00 | 0.00 | 49 | 1005.3 | |
| 20260503030054 | 32 | 0.0 | 0.0 | 0.00 | 0.00 | 0.00 | 49 | 1005.2 | |
| 20260503025049 | 31 | 0.0 | 0.0 | 0.00 | 0.00 | 0.00 | 52 | 1005.1 | |
| 20260503024045 | 32 | 0.0 | 0.0 | 0.00 | 0.00 | 0.00 | 49 | 1005.1 | |
| 20260503023040 | 32 | 0.0 | 0.0 | 0.00 | 0.00 | 0.00 | 50 | 1005.0 | |
| 20260503022035 | 32 | 0.0 | 0.0 | 0.00 | 0.00 | 0.00 | 50 | 1004.8 | |
| 20260503021030 | 33 | 0.0 | 0.0 | 0.00 | 0.00 | 0.00 | 49 | 1004.7 | |
| 20260503020523 | 32 | 0.0 | 0.0 | 0.00 | 0.00 | 0.00 | 51 | 1004.8 | |
| 20260503015519 | 33 | 0.0 | 0.0 | 0.00 | 0.00 | 0.00 | 49 | 1004.8 | |
| 20260503014514 | 32 | 0.0 | 0.0 | 0.00 | 0.00 | 0.00 | 50 | 1004.7 | |
| 20260503013509 | 32 | 0.0 | 0.0 | 0.00 | 0.00 | 0.00 | 50 | 1004.8 | |
| 20260503010455 | 32 | 0.0 | 0.0 | 0.00 | 0.00 | 0.00 | 49 | 1004.5 | |
| 20260503005450 | 32 | 0.0 | 0.0 | 0.00 | 0.00 | 0.00 | 51 | 1004.3 | |
| 20260503004445 | 32 | 0.0 | 0.0 | 0.00 | 0.00 | 0.00 | 53 | 1004.2 | |
| 20260503003440 | 32 | 0.0 | 0.0 | 0.00 | 0.00 | 0.00 | 52 | 1004.2 | |
| 20260503002436 | 32 | 0.0 | 0.0 | 0.00 | 0.00 | 0.00 | 51 | 1004.1 | |
| 20260503001431 | 32 | 0.0 | 0.0 | 0.00 | 0.00 | 0.00 | 51 | 1004.3 | |
| 20260503000422 | 33 | 0.0 | 0.0 | 0.00 | 0.00 | 0.00 | 50 | 1004.4 | |
| 20260502235417 | 32 | 0.0 | 0.0 | 0.00 | 0.00 | 0.00 | 52 | 1004.5 | |
| 20260502234412 | 33 | 0.0 | 0.0 | 0.00 | 0.00 | 0.00 | 50 | 1004.6 | |
| 20260502233408 | 32 | 0.0 | 0.0 | 0.00 | 0.00 | 0.00 | 51 | 1004.5 | |
| 20260502232403 | 33 | 0.0 | 0.0 | 0.00 | 0.00 | 0.00 | 51 | 1004.6 | |
| 20260502231358 | 33 | 0.0 | 0.0 | 0.00 | 0.00 | 0.00 | 51 | 1004.6 | |
| 20260502230353 | 33 | 0.0 | 0.0 | 0.00 | 0.00 | 0.00 | 51 | 1004.6 | |
| 20260502225349 | 33 | 0.0 | 0.0 | 0.00 | 0.00 | 0.00 | 50 | 1004.6 | |
| 20260502224344 | 33 | 0.0 | 0.0 | 0.00 | 0.00 | 0.00 | 49 | 1004.6 | |
| 20260502223339 | 33 | 0.0 | 0.0 | 0.00 | 0.00 | 0.00 | 49 | 1004.4 | |
| 20260502222334 | 34 | 0.0 | 0.0 | 0.00 | 0.00 | 0.00 | 48 | 1004.3 | |
| 20260502221329 | 34 | 0.0 | 0.0 | 0.00 | 0.00 | 0.00 | 47 | 1004.4 | |
| 20260502220325 | 34 | 0.0 | 0.0 | 0.00 | 0.00 | 0.00 | 47 | 1004.5 | |
| 20260502215320 | 34 | 0.0 | 0.0 | 0.00 | 0.00 | 0.00 | 47 | 1004.4 | |
| 20260502214315 | 34 | 0.0 | 0.0 | 0.00 | 0.00 | 0.00 | 47 | 1004.6 | |
| 20260502213310 | 35 | 0.0 | 0.0 | 0.00 | 0.00 | 0.00 | 47 | 1004.5 | |
| 20260502212306 | 34 | 0.0 | 0.0 | 0.00 | 0.00 | 0.00 | 48 | 1004.4 | |
| 20260502211301 | 34 | 0.0 | 0.0 | 0.00 | 0.00 | 0.00 | 47 | 1004.5 | |
| 20260502210256 | 33 | 0.0 | 0.0 | 0.00 | 0.00 | 0.00 | 50 | 1004.6 | |
| 20260502205251 | 33 | 0.0 | 0.0 | 0.00 | 0.00 | 0.00 | 51 | 1004.4 | |
| 20260502204246 | 35 | 0.0 | 0.0 | 0.00 | 0.00 | 0.00 | 49 | 1004.1 | |
| 20260502203242 | 35 | 0.0 | 0.0 | 0.00 | 0.00 | 0.00 | 49 | 1004.4 | |
| 20260502202237 | 35 | 0.0 | 0.0 | 0.00 | 0.00 | 0.00 | 49 | 1003.9 | |
| 20260502201232 | 35 | 0.0 | 0.0 | 0.00 | 0.00 | 0.00 | 49 | 1003.2 | |
| 20260502200227 | 34 | 0.0 | 0.0 | 0.00 | 0.00 | 0.00 | 50 | 1002.9 | |
| 20260502195222 | 34 | 0.0 | 0.0 | 0.00 | 0.00 | 0.00 | 51 | 1002.6 | |
| 20260502194218 | 35 | 0.0 | 0.0 | 0.00 | 0.00 | 0.00 | 50 | 1002.7 | |
| 20260502193213 | 35 | 0.0 | 0.0 | 0.00 | 0.00 | 0.00 | 51 | 1002.8 | |
| 20260502192208 | 35 | 0.0 | 0.0 | 0.00 | 0.00 | 0.00 | 51 | 1002.7 | |
| 20260502191203 | 35 | 0.0 | 0.0 | 0.00 | 0.00 | 0.00 | 51 | 1002.7 | |
| 20260502190158 | 35 | 0.0 | 0.0 | 0.00 | 0.00 | 0.00 | 51 | 1002.6 | |
| 20260502185154 | 35 | 0.0 | 0.0 | 0.00 | 0.00 | 0.00 | 50 | 1002.8 | |
| 20260502184149 | 34 | 0.0 | 0.0 | 0.00 | 0.00 | 0.00 | 50 | 1002.7 | |
| 20260502183144 | 35 | 0.0 | 0.0 | 0.00 | 0.00 | 0.00 | 51 | 1003.0 | |
| 20260502182139 | 34 | 0.0 | 0.0 | 0.00 | 0.00 | 0.00 | 51 | 1003.2 | |
| 20260502181135 | 35 | 0.0 | 0.0 | 0.00 | 0.00 | 0.00 | 51 | 1003.4 | |
| 20260502180130 | 34 | 0.0 | 0.0 | 0.00 | 0.00 | 0.00 | 51 | 1003.5 | |
| 20260502164052 | 34 | 0.0 | 0.0 | 0.00 | 0.00 | 0.00 | 51 | 1004.3 | |
| 20260502163047 | 34 | 0.0 | 0.0 | 0.00 | 0.00 | 0.00 | 51 | 1004.4 | |
| 20260502162042 | 34 | 0.0 | 0.0 | 0.00 | 0.00 | 0.00 | 51 | 1004.8 | |
| 20260502161038 | 34 | 0.0 | 0.0 | 0.00 | 0.00 | 0.00 | 51 | 1004.9 | |
| 20260502152013 | 33 | 0.0 | 0.0 | 0.00 | 0.00 | 0.00 | 52 | 1004.8 | |
| 20260502151009 | 34 | 0.0 | 0.0 | 0.00 | 0.00 | 0.00 | 50 | 1004.5 | |
| 20260502123814 | 34 | 0.0 | 0.0 | 0.00 | 0.00 | 0.00 | 50 | 1002.9 | |
| 20260502122809 | 34 | 0.0 | 0.0 | 0.00 | 0.00 | 0.00 | 50 | 1002.9 | |
| 20260502121805 | 33 | 0.0 | 0.0 | 0.00 | 0.00 | 0.00 | 51 | 1002.8 | |
| 20260502113745 | 34 | 0.0 | 0.0 | 0.00 | 0.00 | 0.00 | 50 | 1001.8 | |
| 20260502112741 | 34 | 0.0 | 0.0 | 0.00 | 0.00 | 0.00 | 50 | 1001.9 | |
| 20260502111736 | 34 | 0.0 | 0.0 | 0.00 | 0.00 | 0.00 | 50 | 1001.9 | |
| 20260502110731 | 34 | 0.0 | 0.0 | 0.00 | 0.00 | 0.00 | 50 | 1001.9 | |
| 20260502105726 | 34 | 0.0 | 0.0 | 0.00 | 0.00 | 0.00 | 50 | 1001.8 | |
| 20260502104722 | 34 | 0.0 | 0.0 | 0.00 | 0.00 | 0.00 | 50 | 1001.6 | |
| 20260502103717 | 34 | 0.0 | 0.0 | 0.00 | 0.00 | 0.00 | 49 | 1001.5 | |
| 20260502102712 | 34 | 0.0 | 0.0 | 0.00 | 0.00 | 0.00 | 50 | 1001.7 | |
| 20260502101707 | 34 | 0.0 | 0.0 | 0.00 | 0.00 | 0.00 | 50 | 1001.6 | |
| 20260502100702 | 34 | 0.0 | 0.0 | 0.00 | 0.00 | 0.00 | 50 | 1001.4 | |
| 20260502070536 | 33 | 0.0 | 0.0 | 0.00 | 0.00 | 0.00 | 54 | 1001.7 | |
| 20260502065532 | 33 | 0.0 | 0.0 | 0.00 | 0.00 | 0.00 | 54 | 1001.9 | |
| 20260502064527 | 33 | 0.0 | 0.0 | 0.00 | 0.00 | 0.00 | 52 | 1001.8 | |
| 20260502063522 | 33 | 0.0 | 0.0 | 0.00 | 0.00 | 0.00 | 52 | 1002.0 | |
| 20260502062517 | 34 | 0.0 | 0.0 | 0.00 | 0.00 | 0.00 | 50 | 1001.9 | |
| 20260502061512 | 35 | 0.0 | 0.0 | 0.00 | 0.00 | 0.00 | 50 | 1002.1 | |
| 20260502060508 | 35 | 0.0 | 0.0 | 0.00 | 0.00 | 0.00 | 50 | 1002.2 | |
| 20260502055503 | 35 | 0.0 | 0.0 | 0.00 | 0.00 | 0.00 | 50 | 1002.2 | |
| 20260502052449 | 35 | 0.0 | 0.0 | 0.00 | 0.00 | 0.00 | 49 | 1002.6 |